Time,TemperatureF,DewpointF,PressureIn,WindDirection,WindDirectionDegrees,WindSpeedMPH,WindSpeedGustMPH,Humidity,HourlyPrecipIn,Conditions,Clouds,dailyrainin,SoftwareType,DateUTC
2013-05-24 00:04:00,42.3,0.0,30.31,ENE,65,0.0,0.0,0,0.00,,---,0.00,VWS V14.00,2013-05-24 05:04:00,
2013-05-24 00:09:00,42.1,0.0,30.31,ENE,67,0.0,0.0,0,0.00,,---,0.00,VWS V14.00,2013-05-24 05:09:00,
2013-05-24 00:14:00,41.9,0.0,30.31,ENE,67,0.0,0.0,0,0.00,,---,0.00,VWS V14.00,2013-05-24 05:14:00,
2013-05-24 00:19:00,41.9,0.0,30.31,ENE,67,0.0,0.0,0,0.00,,---,0.00,VWS V14.00,2013-05-24 05:19:00,
2013-05-24 00:24:00,41.6,0.0,30.31,ENE,67,0.0,0.0,0,0.00,,---,0.00,VWS V14.00,2013-05-24 05:24:00,
2013-05-24 00:30:00,41.5,0.0,30.31,ENE,67,0.0,0.0,0,0.00,,---,0.00,VWS V14.00,2013-05-24 05:30:00,
2013-05-24 00:35:00,41.3,0.0,30.31,ENE,67,0.0,0.0,0,0.00,,---,0.00,VWS V14.00,2013-05-24 05:35:00,
2013-05-24 00:40:00,41.2,0.0,30.32,ENE,67,0.0,0.0,0,0.00,,---,0.00,VWS V14.00,2013-05-24 05:40:00,
2013-05-24 00:45:00,41.1,0.0,30.32,ENE,57,0.0,0.0,0,0.00,,---,0.00,VWS V14.00,2013-05-24 05:45:00,
2013-05-24 00:50:00,41.1,0.0,30.32,NE,52,0.0,0.0,0,0.00,,---,0.00,VWS V14.00,2013-05-24 05:50:00,
2013-05-24 00:55:00,41.1,0.0,30.32,NE,45,0.0,0.0,0,0.00,,---,0.00,VWS V14.00,2013-05-24 05:55:00,
2013-05-24 01:00:00,40.9,0.0,30.32,NE,45,0.0,0.0,0,0.00,,---,0.00,VWS V14.00,2013-05-24 06:00:00,
2013-05-24 01:05:00,40.8,0.0,30.32,NE,45,0.0,0.0,0,0.00,,---,0.00,VWS V14.00,2013-05-24 06:05:00,
2013-05-24 01:10:00,40.8,0.0,30.32,NE,38,0.0,0.0,0,0.00,,---,0.00,VWS V14.00,2013-05-24 06:10:00,
2013-05-24 01:15:00,40.8,0.0,30.32,NE,38,0.0,0.0,0,0.00,,---,0.00,VWS V14.00,2013-05-24 06:15:00,
2013-05-24 01:20:00,40.6,0.0,30.32,NE,40,0.0,0.0,0,0.00,,---,0.00,VWS V14.00,2013-05-24 06:20:00,
2013-05-24 01:26:00,40.5,0.0,30.32,NE,43,0.0,0.0,0,0.00,,---,0.00,VWS V14.00,2013-05-24 06:26:00,
2013-05-24 01:31:00,40.5,0.0,30.32,NE,40,0.0,0.0,0,0.00,,---,0.00,VWS V14.00,2013-05-24 06:31:00,
2013-05-24 01:36:00,40.5,0.0,30.32,NE,41,0.0,0.0,0,0.00,,---,0.00,VWS V14.00,2013-05-24 06:36:00,
2013-05-24 01:41:00,40.5,0.0,30.32,NE,42,0.0,0.0,0,0.00,,---,0.00,VWS V14.00,2013-05-24 06:41:00,
2013-05-24 01:46:00,40.3,0.0,30.32,NE,41,0.0,0.0,0,0.00,,---,0.00,VWS V14.00,2013-05-24 06:46:00,
2013-05-24 01:51:00,40.2,0.0,30.32,NE,41,0.0,0.0,0,0.00,,---,0.00,VWS V14.00,2013-05-24 06:51:00,
2013-05-24 01:56:00,40.1,0.0,30.31,NE,41,0.0,0.0,0,0.00,,---,0.00,VWS V14.00,2013-05-24 06:56:00,
2013-05-24 02:01:00,40.1,0.0,30.32,NE,40,0.0,0.0,0,0.00,,---,0.00,VWS V14.00,2013-05-24 07:01:00,
2013-05-24 02:06:00,39.9,0.0,30.31,NE,40,0.0,0.0,0,0.00,,---,0.00,VWS V14.00,2013-05-24 07:06:00,
2013-05-24 02:11:00,39.9,0.0,30.32,NE,40,0.0,0.0,0,0.00,,---,0.00,VWS V14.00,2013-05-24 07:11:00,
2013-05-24 02:17:00,39.8,0.0,30.32,NE,40,0.0,0.0,0,0.00,,---,0.00,VWS V14.00,2013-05-24 07:17:00,
2013-05-24 02:22:00,39.6,0.0,30.33,NE,40,0.0,0.0,0,0.00,,---,0.00,VWS V14.00,2013-05-24 07:22:00,
2013-05-24 02:28:00,39.6,0.0,30.33,NE,40,0.0,0.0,0,0.00,,---,0.00,VWS V14.00,2013-05-24 07:28:00,
2013-05-24 02:33:00,39.6,0.0,30.33,NE,40,0.0,0.0,0,0.00,,---,0.00,VWS V14.00,2013-05-24 07:33:00,
2013-05-24 02:38:00,39.6,0.0,30.33,NE,40,0.0,0.0,0,0.00,,---,0.00,VWS V14.00,2013-05-24 07:38:00,
2013-05-24 02:43:00,39.6,0.0,30.33,NE,40,0.0,0.0,0,0.00,,---,0.00,VWS V14.00,2013-05-24 07:43:00,
2013-05-24 02:48:00,39.8,0.0,30.33,NE,40,0.0,0.0,0,0.00,,---,0.00,VWS V14.00,2013-05-24 07:48:00,
2013-05-24 02:53:00,39.6,0.0,30.33,NE,40,0.0,0.0,0,0.00,,---,0.00,VWS V14.00,2013-05-24 07:53:00,
2013-05-24 02:58:00,39.6,0.0,30.34,NE,40,0.0,0.0,0,0.00,,---,0.00,VWS V14.00,2013-05-24 07:58:00,
2013-05-24 03:03:00,39.6,0.0,30.34,NE,40,0.0,0.0,0,0.00,,---,0.00,VWS V14.00,2013-05-24 08:03:00,
2013-05-24 03:08:00,39.5,0.0,30.34,NE,40,0.0,0.0,0,0.00,,---,0.00,VWS V14.00,2013-05-24 08:08:00,
2013-05-24 03:13:00,39.3,0.0,30.34,NE,40,0.0,0.0,0,0.00,,---,0.00,VWS V14.00,2013-05-24 08:13:00,
2013-05-24 03:19:00,39.3,0.0,30.34,NE,40,0.0,0.0,0,0.00,,---,0.00,VWS V14.00,2013-05-24 08:19:00,
2013-05-24 03:24:00,39.3,0.0,30.34,NE,40,0.0,0.0,0,0.00,,---,0.00,VWS V14.00,2013-05-24 08:24:00,
2013-05-24 03:29:00,39.3,0.0,30.35,NE,40,0.0,0.0,0,0.00,,---,0.00,VWS V14.00,2013-05-24 08:29:00,
2013-05-24 03:34:00,39.1,0.0,30.35,NE,40,0.0,0.0,0,0.00,,---,0.00,VWS V14.00,2013-05-24 08:34:00,
2013-05-24 03:39:00,38.8,0.0,30.35,NE,40,0.0,0.0,0,0.00,,---,0.00,VWS V14.00,2013-05-24 08:39:00,
2013-05-24 03:44:00,38.5,0.0,30.35,NE,40,0.0,0.0,0,0.00,,---,0.00,VWS V14.00,2013-05-24 08:44:00,
2013-05-24 03:49:00,38.5,0.0,30.35,NE,40,0.0,0.0,0,0.00,,---,0.00,VWS V14.00,2013-05-24 08:49:00,
2013-05-24 03:54:00,38.3,0.0,30.35,NE,40,0.0,0.0,0,0.00,,---,0.00,VWS V14.00,2013-05-24 08:54:00,
2013-05-24 03:59:00,38.3,0.0,30.35,NE,40,0.0,0.0,0,0.00,,---,0.00,VWS V14.00,2013-05-24 08:59:00,
2013-05-24 04:04:00,38.3,0.0,30.35,NE,40,0.0,0.0,0,0.00,,---,0.00,VWS V14.00,2013-05-24 09:04:00,
2013-05-24 04:09:00,38.3,0.0,30.35,NE,40,0.0,0.0,0,0.00,,---,0.00,VWS V14.00,2013-05-24 09:09:00,
2013-05-24 04:14:00,38.3,0.0,30.35,NE,40,0.0,0.0,0,0.00,,---,0.00,VWS V14.00,2013-05-24 09:14:00,
2013-05-24 04:19:00,38.0,0.0,30.36,NE,40,0.0,0.0,0,0.00,,---,0.00,VWS V14.00,2013-05-24 09:19:00,
2013-05-24 04:24:00,37.8,0.0,30.36,NE,40,0.0,0.0,0,0.00,,---,0.00,VWS V14.00,2013-05-24 09:24:00,
2013-05-24 04:30:00,37.6,0.0,30.35,NE,40,0.0,0.0,0,0.00,,---,0.00,VWS V14.00,2013-05-24 09:30:00,
2013-05-24 04:35:00,37.8,0.0,30.35,NE,40,0.0,0.0,0,0.00,,---,0.00,VWS V14.00,2013-05-24 09:35:00,
2013-05-24 04:40:00,37.6,0.0,30.35,NE,40,0.0,0.0,0,0.00,,---,0.00,VWS V14.00,2013-05-24 09:40:00,
2013-05-24 04:45:00,37.5,0.0,30.35,NE,40,0.0,0.0,0,0.00,,---,0.00,VWS V14.00,2013-05-24 09:45:00,
2013-05-24 04:50:00,37.3,0.0,30.35,NE,40,0.0,0.0,0,0.00,,---,0.00,VWS V14.00,2013-05-24 09:50:00,
2013-05-24 04:55:00,37.3,0.0,30.35,NE,40,0.0,0.0,0,0.00,,---,0.00,VWS V14.00,2013-05-24 09:55:00,
2013-05-24 05:00:00,37.3,0.0,30.35,NE,40,0.0,0.0,0,0.00,,---,0.00,VWS V14.00,2013-05-24 10:00:00,
2013-05-24 05:05:00,37.3,0.0,30.35,NE,40,0.0,0.0,0,0.00,,---,0.00,VWS V14.00,2013-05-24 10:05:00,
2013-05-24 05:10:00,37.3,0.0,30.35,NE,40,0.0,0.0,0,0.00,,---,0.00,VWS V14.00,2013-05-24 10:10:00,
2013-05-24 05:16:00,37.3,0.0,30.35,NE,40,0.0,0.0,0,0.00,,---,0.00,VWS V14.00,2013-05-24 10:16:00,
2013-05-24 05:21:00,37.5,0.0,30.35,NE,40,0.0,0.0,0,0.00,,---,0.00,VWS V14.00,2013-05-24 10:21:00,
2013-05-24 05:26:00,37.3,0.0,30.35,NE,40,0.0,0.0,0,0.00,,---,0.00,VWS V14.00,2013-05-24 10:26:00,
2013-05-24 05:31:00,37.3,0.0,30.36,NE,40,0.0,0.0,0,0.00,,---,0.00,VWS V14.00,2013-05-24 10:31:00,
2013-05-24 05:36:00,37.3,0.0,30.36,NE,40,0.0,0.0,0,0.00,,---,0.00,VWS V14.00,2013-05-24 10:36:00,
2013-05-24 05:41:00,37.3,0.0,30.36,NE,40,0.0,0.0,0,0.00,,---,0.00,VWS V14.00,2013-05-24 10:41:00,
2013-05-24 05:46:00,37.3,0.0,30.36,NE,40,0.0,0.0,0,0.00,,---,0.00,VWS V14.00,2013-05-24 10:46:00,
2013-05-24 05:51:00,37.3,0.0,30.36,NE,40,0.0,0.0,0,0.00,,---,0.00,VWS V14.00,2013-05-24 10:51:00,
2013-05-24 05:56:00,37.5,0.0,30.36,NE,40,0.0,0.0,0,0.00,,---,0.00,VWS V14.00,2013-05-24 10:56:00,
2013-05-24 06:01:00,37.6,0.0,30.37,NE,40,0.0,0.0,0,0.00,,---,0.00,VWS V14.00,2013-05-24 11:01:00,
2013-05-24 06:06:00,37.8,0.0,30.37,NE,40,0.0,0.0,0,0.00,,---,0.00,VWS V14.00,2013-05-24 11:06:00,
2013-05-24 06:12:00,38.0,0.0,30.37,NE,40,0.0,0.0,0,0.00,,---,0.00,VWS V14.00,2013-05-24 11:12:00,
2013-05-24 06:17:00,38.5,0.0,30.38,NE,40,0.0,0.0,0,0.00,,---,0.00,VWS V14.00,2013-05-24 11:17:00,
2013-05-24 06:22:00,38.8,0.0,30.38,NE,40,0.0,0.0,0,0.00,,---,0.00,VWS V14.00,2013-05-24 11:22:00,
2013-05-24 06:27:00,39.1,0.0,30.38,NE,40,0.0,0.0,0,0.00,,---,0.00,VWS V14.00,2013-05-24 11:27:00,
2013-05-24 06:32:00,39.3,0.0,30.39,NE,40,0.0,0.0,0,0.00,,---,0.00,VWS V14.00,2013-05-24 11:32:00,
2013-05-24 06:37:00,39.6,0.0,30.39,NE,40,0.0,0.0,0,0.00,,---,0.00,VWS V14.00,2013-05-24 11:37:00,
2013-05-24 06:42:00,40.1,0.0,30.39,NE,40,0.0,0.0,0,0.00,,---,0.00,VWS V14.00,2013-05-24 11:42:00,
2013-05-24 06:47:00,40.5,0.0,30.39,NE,34,0.0,0.0,0,0.00,,---,0.00,VWS V14.00,2013-05-24 11:47:00,
2013-05-24 06:52:00,40.8,0.0,30.40,NNE,28,0.0,0.0,0,0.00,,---,0.00,VWS V14.00,2013-05-24 11:52:00,
2013-05-24 06:58:00,41.2,0.0,30.40,NNE,22,0.0,0.0,0,0.00,,---,0.00,VWS V14.00,2013-05-24 11:58:00,
2013-05-24 07:03:00,41.5,0.0,30.40,NNE,17,0.0,0.0,0,0.00,,---,0.00,VWS V14.00,2013-05-24 12:03:00,
2013-05-24 07:08:00,41.9,0.0,30.40,NNE,17,0.0,0.0,0,0.00,,---,0.00,VWS V14.00,2013-05-24 12:08:00,
2013-05-24 07:13:00,42.5,0.0,30.41,NNE,14,0.0,0.0,0,0.00,,---,0.00,VWS V14.00,2013-05-24 12:13:00,
2013-05-24 07:18:00,42.8,0.0,30.41,NNW,342,0.0,1.0,0,0.00,,---,0.00,VWS V14.00,2013-05-24 12:18:00,
2013-05-24 07:24:00,43.3,0.0,30.41,North,360,0.0,1.0,0,0.00,,---,0.00,VWS V14.00,2013-05-24 12:24:00,
2013-05-24 07:29:00,43.8,0.0,30.42,North,360,0.0,1.0,0,0.00,,---,0.00,VWS V14.00,2013-05-24 12:29:00,
2013-05-24 07:34:00,43.9,0.0,30.42,NNW,343,0.0,0.0,0,0.00,,---,0.00,VWS V14.00,2013-05-24 12:34:00,
2013-05-24 07:39:00,44.1,0.0,30.42,NNW,344,0.0,0.0,0,0.00,,---,0.00,VWS V14.00,2013-05-24 12:39:00,
2013-05-24 07:44:00,44.6,0.0,30.42,NNW,344,0.0,0.0,0,0.00,,---,0.00,VWS V14.00,2013-05-24 12:44:00,
2013-05-24 07:49:00,44.9,0.0,30.42,NNE,13,3.0,6.0,0,0.00,,---,0.00,VWS V14.00,2013-05-24 12:49:00,
2013-05-24 07:54:00,44.9,0.0,30.43,North,11,0.0,6.0,0,0.00,,---,0.00,VWS V14.00,2013-05-24 12:54:00,
2013-05-24 08:00:00,45.4,0.0,30.43,North,11,0.0,6.0,0,0.00,,---,0.00,VWS V14.00,2013-05-24 13:00:00,
2013-05-24 08:05:00,45.7,0.0,30.43,North,11,0.0,4.0,0,0.00,,---,0.00,VWS V14.00,2013-05-24 13:05:00,
2013-05-24 08:10:00,46.0,0.0,30.43,North,11,0.0,4.0,0,0.00,,---,0.00,VWS V14.00,2013-05-24 13:10:00,
2013-05-24 08:15:00,46.1,0.0,30.44,North,5,4.0,5.0,0,0.00,,---,0.00,VWS V14.00,2013-05-24 13:15:00,
2013-05-24 08:20:00,46.4,0.0,30.44,North,5,0.0,5.0,0,0.00,,---,0.00,VWS V14.00,2013-05-24 13:20:00,
2013-05-24 08:25:00,46.7,0.0,30.44,North,5,0.0,6.0,0,0.00,,---,0.00,VWS V14.00,2013-05-24 13:25:00,
2013-05-24 08:30:00,46.7,0.0,30.44,North,11,0.0,6.0,0,0.00,,---,0.00,VWS V14.00,2013-05-24 13:30:00,
2013-05-24 08:35:00,47.9,0.0,30.44,NNE,13,0.0,4.0,0,0.00,,---,0.00,VWS V14.00,2013-05-24 13:35:00,
2013-05-24 08:40:00,48.3,0.0,30.44,NNW,346,2.0,7.0,0,0.00,,---,0.00,VWS V14.00,2013-05-24 13:40:00,
2013-05-24 08:45:00,48.6,0.0,30.44,North,5,0.0,7.0,0,0.00,,---,0.00,VWS V14.00,2013-05-24 13:45:00,
2013-05-24 08:50:00,48.9,0.0,30.44,NNE,12,2.0,7.0,0,0.00,,---,0.00,VWS V14.00,2013-05-24 13:50:00,
2013-05-24 08:55:00,49.6,0.0,30.44,NNE,30,0.0,7.0,0,0.00,,---,0.00,VWS V14.00,2013-05-24 13:55:00,
2013-05-24 09:01:00,49.6,0.0,30.44,ENE,76,0.0,0.0,0,0.00,,---,0.00,VWS V14.00,2013-05-24 14:01:00,
2013-05-24 09:44:00,51.6,0.0,30.44,NE,55,0.0,0.0,0,0.00,,---,0.00,VWS V14.00,2013-05-24 14:44:00,
2013-05-24 09:49:00,51.9,0.0,30.44,North,5,0.0,4.0,0,0.00,,---,0.00,VWS V14.00,2013-05-24 14:49:00,
2013-05-24 09:54:00,51.9,0.0,30.43,NNW,348,0.0,4.0,0,0.00,,---,0.00,VWS V14.00,2013-05-24 14:54:00,
2013-05-24 09:59:00,51.7,0.0,30.43,NNW,340,0.0,4.0,0,0.00,,---,0.00,VWS V14.00,2013-05-24 14:59:00,
2013-05-24 10:04:00,51.6,0.0,30.43,North,355,2.0,6.0,0,0.00,,---,0.00,VWS V14.00,2013-05-24 15:04:00,
2013-05-24 10:09:00,52.0,0.0,30.43,NNW,344,6.0,7.0,0,0.00,,---,0.00,VWS V14.00,2013-05-24 15:09:00,
2013-05-24 10:14:00,52.8,0.0,30.43,North,355,0.0,7.0,0,0.00,,---,0.00,VWS V14.00,2013-05-24 15:14:00,
2013-05-24 10:20:00,53.8,0.0,30.43,NE,38,0.0,7.0,0,0.00,,---,0.00,VWS V14.00,2013-05-24 15:20:00,
2013-05-24 10:25:00,54.5,0.0,30.43,NE,49,0.0,7.0,0,0.00,,---,0.00,VWS V14.00,2013-05-24 15:25:00,
2013-05-24 10:30:00,54.8,0.0,30.43,NE,46,0.0,7.0,0,0.00,,---,0.00,VWS V14.00,2013-05-24 15:30:00,
2013-05-24 10:35:00,54.2,0.0,30.42,NNW,331,1.0,7.0,0,0.00,,---,0.00,VWS V14.00,2013-05-24 15:35:00,
2013-05-24 10:40:00,53.5,0.0,30.42,NNW,331,0.0,7.0,0,0.00,,---,0.00,VWS V14.00,2013-05-24 15:40:00,
2013-05-24 10:45:00,54.1,0.0,30.42,ENE,74,2.0,7.0,0,0.00,,---,0.00,VWS V14.00,2013-05-24 15:45:00,
2013-05-24 10:50:00,53.9,0.0,30.42,ENE,75,0.0,7.0,0,0.00,,---,0.00,VWS V14.00,2013-05-24 15:50:00,
2013-05-24 10:55:00,54.4,0.0,30.43,ENE,65,2.0,7.0,0,0.00,,---,0.00,VWS V14.00,2013-05-24 15:55:00,
2013-05-24 11:00:00,54.7,0.0,30.42,East,82,0.0,7.0,0,0.00,,---,0.00,VWS V14.00,2013-05-24 16:00:00,
2013-05-24 11:05:00,54.8,0.0,30.42,ENE,65,0.0,6.0,0,0.00,,---,0.00,VWS V14.00,2013-05-24 16:05:00,
2013-05-24 11:11:00,54.7,0.0,30.42,ENE,63,0.0,10.0,0,0.00,,---,0.00,VWS V14.00,2013-05-24 16:11:00,
2013-05-24 11:16:00,54.8,0.0,30.42,NNE,33,0.0,10.0,0,0.00,,---,0.00,VWS V14.00,2013-05-24 16:16:00,
2013-05-24 11:21:00,55.4,0.0,30.42,NNE,32,0.0,10.0,0,0.00,,---,0.00,VWS V14.00,2013-05-24 16:21:00,
2013-05-24 11:26:00,56.2,0.0,30.42,NE,43,0.0,10.0,0,0.00,,---,0.00,VWS V14.00,2013-05-24 16:26:00,
2013-05-24 11:31:00,56.3,0.0,30.42,NNE,18,5.0,6.0,0,0.00,,---,0.00,VWS V14.00,2013-05-24 16:31:00,
2013-05-24 11:36:00,55.9,0.0,30.42,NNE,26,0.0,6.0,0,0.00,,---,0.00,VWS V14.00,2013-05-24 16:36:00,
2013-05-24 11:41:00,56.7,0.0,30.42,NE,34,0.0,6.0,0,0.00,,---,0.00,VWS V14.00,2013-05-24 16:41:00,
2013-05-24 11:46:00,57.5,0.0,30.42,ENE,61,0.0,9.0,0,0.00,,---,0.00,VWS V14.00,2013-05-24 16:46:00,
2013-05-24 11:51:00,58.0,0.0,30.42,NNW,343,0.0,9.0,0,0.00,,---,0.00,VWS V14.00,2013-05-24 16:51:00,
2013-05-24 11:56:00,57.5,0.0,30.41,SE,134,0.0,9.0,0,0.00,,---,0.00,VWS V14.00,2013-05-24 16:56:00,
2013-05-24 12:01:00,57.0,0.0,30.41,ENE,76,0.0,0.0,0,0.00,,---,0.00,VWS V14.00,2013-05-24 17:01:00,
2013-05-24 12:07:00,57.5,0.0,30.41,East,87,0.0,6.0,0,0.00,,---,0.00,VWS V14.00,2013-05-24 17:07:00,
2013-05-24 12:12:00,58.1,0.0,30.41,ESE,104,0.0,6.0,0,0.00,,---,0.00,VWS V14.00,2013-05-24 17:12:00,
2013-05-24 12:17:00,58.7,0.0,30.41,NE,40,0.0,7.0,0,0.00,,---,0.00,VWS V14.00,2013-05-24 17:17:00,
2013-05-24 12:22:00,59.2,0.0,30.41,NW,326,4.0,11.0,0,0.00,,---,0.00,VWS V14.00,2013-05-24 17:22:00,
2013-05-24 12:27:00,58.4,0.0,30.41,NNW,331,4.0,11.0,0,0.00,,---,0.00,VWS V14.00,2013-05-24 17:27:00,
2013-05-24 12:32:00,58.3,0.0,30.41,North,350,0.0,4.0,0,0.00,,---,0.00,VWS V14.00,2013-05-24 17:32:00,
2013-05-24 12:37:00,58.7,0.0,30.41,ESE,104,0.0,5.0,0,0.00,,---,0.00,VWS V14.00,2013-05-24 17:37:00,
2013-05-24 12:42:00,59.5,0.0,30.40,ESE,111,0.0,5.0,0,0.00,,---,0.00,VWS V14.00,2013-05-24 17:42:00,
2013-05-24 12:47:00,59.8,0.0,30.40,ENE,71,0.0,5.0,0,0.00,,---,0.00,VWS V14.00,2013-05-24 17:47:00,
2013-05-24 12:53:00,59.5,0.0,30.40,North,5,0.0,9.0,0,0.00,,---,0.00,VWS V14.00,2013-05-24 17:53:00,
2013-05-24 12:58:00,59.3,0.0,30.40,ENE,78,3.0,9.0,0,0.00,,---,0.00,VWS V14.00,2013-05-24 17:58:00,
2013-05-24 13:03:00,60.1,0.0,30.40,NE,36,0.0,0.0,0,0.00,,---,0.00,VWS V14.00,2013-05-24 18:03:00,
2013-05-24 13:08:00,60.7,0.0,30.40,NE,34,0.0,0.0,0,0.00,,---,0.00,VWS V14.00,2013-05-24 18:08:00,
2013-05-24 13:13:00,60.9,0.0,30.39,NE,44,0.0,0.0,0,0.00,,---,0.00,VWS V14.00,2013-05-24 18:13:00,
2013-05-24 13:18:00,61.2,0.0,30.39,North,355,3.0,6.0,0,0.00,,---,0.00,VWS V14.00,2013-05-24 18:18:00,
2013-05-24 13:23:00,60.5,0.0,30.39,North,5,0.0,7.0,0,0.00,,---,0.00,VWS V14.00,2013-05-24 18:23:00,
2013-05-24 13:28:00,60.4,0.0,30.39,SE,124,0.0,9.0,0,0.00,,---,0.00,VWS V14.00,2013-05-24 18:28:00,
2013-05-24 13:33:00,61.5,0.0,30.39,SE,124,0.0,0.0,0,0.00,,---,0.00,VWS V14.00,2013-05-24 18:33:00,
2013-05-24 13:38:00,62.3,0.0,30.38,NE,54,0.0,5.0,0,0.00,,---,0.00,VWS V14.00,2013-05-24 18:38:00,
2013-05-24 13:43:00,62.7,0.0,30.38,East,82,0.0,5.0,0,0.00,,---,0.00,VWS V14.00,2013-05-24 18:43:00,
2013-05-24 13:48:00,62.4,0.0,30.38,North,355,0.0,5.0,0,0.00,,---,0.00,VWS V14.00,2013-05-24 18:48:00,
2013-05-24 13:53:00,62.4,0.0,30.38,ENE,62,4.0,7.0,0,0.00,,---,0.00,VWS V14.00,2013-05-24 18:53:00,
2013-05-24 13:59:00,61.8,0.0,30.38,ENE,71,0.0,7.0,0,0.00,,---,0.00,VWS V14.00,2013-05-24 18:59:00,
2013-05-24 14:04:00,62.1,0.0,30.37,NNE,19,0.0,1.0,0,0.00,,---,0.00,VWS V14.00,2013-05-24 19:04:00,
2013-05-24 14:09:00,61.2,0.0,30.37,SE,134,0.0,5.0,0,0.00,,---,0.00,VWS V14.00,2013-05-24 19:09:00,
2013-05-24 14:14:00,60.9,0.0,30.37,SE,137,0.0,7.0,0,0.00,,---,0.00,VWS V14.00,2013-05-24 19:14:00,
2013-05-24 14:19:00,61.2,0.0,30.36,ESE,123,0.0,7.0,0,0.00,,---,0.00,VWS V14.00,2013-05-24 19:19:00,
2013-05-24 14:24:00,62.0,0.0,30.36,North,5,0.0,7.0,0,0.00,,---,0.00,VWS V14.00,2013-05-24 19:24:00,
2013-05-24 14:29:00,62.4,0.0,30.36,NNW,344,0.0,7.0,0,0.00,,---,0.00,VWS V14.00,2013-05-24 19:29:00,
2013-05-24 14:34:00,62.6,0.0,30.36,NW,325,8.0,10.0,0,0.00,,---,0.00,VWS V14.00,2013-05-24 19:34:00,
2013-05-24 14:39:00,62.3,0.0,30.36,NNW,334,0.0,10.0,0,0.00,,---,0.00,VWS V14.00,2013-05-24 19:39:00,
2013-05-24 14:44:00,63.1,0.0,30.36,North,355,3.0,10.0,0,0.00,,---,0.00,VWS V14.00,2013-05-24 19:44:00,
2013-05-24 14:50:00,63.9,0.0,30.36,ESE,112,0.0,10.0,0,0.00,,---,0.00,VWS V14.00,2013-05-24 19:50:00,
2013-05-24 14:55:00,63.4,0.0,30.36,SE,124,0.0,10.0,0,0.00,,---,0.00,VWS V14.00,2013-05-24 19:55:00,
2013-05-24 15:01:00,62.9,0.0,30.36,ESE,113,2.0,5.0,0,0.00,,---,0.00,VWS V14.00,2013-05-24 20:01:00,
2013-05-24 15:06:00,63.1,0.0,30.35,ESE,113,0.0,5.0,0,0.00,,---,0.00,VWS V14.00,2013-05-24 20:06:00,
2013-05-24 15:11:00,63.9,0.0,30.35,East,90,0.0,5.0,0,0.00,,---,0.00,VWS V14.00,2013-05-24 20:11:00,
2013-05-24 15:16:00,63.2,0.0,30.35,SE,128,0.0,7.0,0,0.00,,---,0.00,VWS V14.00,2013-05-24 20:16:00,
2013-05-24 15:21:00,62.9,0.0,30.34,East,93,0.0,9.0,0,0.00,,---,0.00,VWS V14.00,2013-05-24 20:21:00,
2013-05-24 15:28:00,63.5,0.0,30.34,East,100,1.0,9.0,0,0.00,,---,0.00,VWS V14.00,2013-05-24 20:28:00,
2013-05-24 15:33:00,62.9,0.0,30.34,SE,126,0.0,5.0,0,0.00,,---,0.00,VWS V14.00,2013-05-24 20:33:00,
2013-05-24 15:38:00,62.4,0.0,30.34,ENE,63,0.0,5.0,0,0.00,,---,0.00,VWS V14.00,2013-05-24 20:38:00,
2013-05-24 15:43:00,63.1,0.0,30.33,ENE,69,0.0,5.0,0,0.00,,---,0.00,VWS V14.00,2013-05-24 20:43:00,
2013-05-24 15:49:00,63.2,0.0,30.33,SE,132,3.0,7.0,0,0.00,,---,0.00,VWS V14.00,2013-05-24 20:49:00,
2013-05-24 15:54:00,63.2,0.0,30.33,SE,133,0.0,8.0,0,0.00,,---,0.00,VWS V14.00,2013-05-24 20:54:00,
2013-05-24 15:59:00,63.1,0.0,30.32,SE,126,0.0,9.0,0,0.00,,---,0.00,VWS V14.00,2013-05-24 20:59:00,
2013-05-24 16:04:00,62.6,0.0,30.32,SE,139,0.0,7.0,0,0.00,,---,0.00,VWS V14.00,2013-05-24 21:04:00,
2013-05-24 16:09:00,63.1,0.0,30.32,SE,126,0.0,7.0,0,0.00,,---,0.00,VWS V14.00,2013-05-24 21:09:00,
2013-05-24 16:14:00,63.4,0.0,30.31,SE,124,0.0,7.0,0,0.00,,---,0.00,VWS V14.00,2013-05-24 21:14:00,
2013-05-24 16:19:00,63.9,0.0,30.31,ESE,112,5.0,7.0,0,0.00,,---,0.00,VWS V14.00,2013-05-24 21:19:00,
2013-05-24 16:24:00,64.3,0.0,30.31,ENE,74,0.0,7.0,0,0.00,,---,0.00,VWS V14.00,2013-05-24 21:24:00,
2013-05-24 16:29:00,64.0,0.0,30.32,SE,135,3.0,8.0,0,0.00,,---,0.00,VWS V14.00,2013-05-24 21:29:00,
2013-05-24 16:35:00,63.5,0.0,30.31,SE,132,1.0,6.0,0,0.00,,---,0.00,VWS V14.00,2013-05-24 21:35:00,
2013-05-24 16:40:00,63.5,0.0,30.31,SE,139,5.0,7.0,0,0.00,,---,0.00,VWS V14.00,2013-05-24 21:40:00,
2013-05-24 16:45:00,63.2,0.0,30.31,SE,130,0.0,7.0,0,0.00,,---,0.00,VWS V14.00,2013-05-24 21:45:00,
2013-05-24 16:50:00,63.4,0.0,30.31,SE,128,0.0,7.0,0,0.00,,---,0.00,VWS V14.00,2013-05-24 21:50:00,
2013-05-24 16:55:00,63.9,0.0,30.31,SE,144,0.0,7.0,0,0.00,,---,0.00,VWS V14.00,2013-05-24 21:55:00,
2013-05-24 17:00:00,64.3,0.0,30.31,SE,139,0.0,7.0,0,0.00,,---,0.00,VWS V14.00,2013-05-24 22:00:00,
2013-05-24 17:05:00,64.0,0.0,30.31,SE,133,0.0,8.0,0,0.00,,---,0.00,VWS V14.00,2013-05-24 22:05:00,
2013-05-24 17:10:00,63.9,0.0,30.31,SE,139,9.0,9.0,0,0.00,,---,0.00,VWS V14.00,2013-05-24 22:10:00,
2013-05-24 17:15:00,63.5,0.0,30.31,SE,135,0.0,9.0,0,0.00,,---,0.00,VWS V14.00,2013-05-24 22:15:00,
2013-05-24 17:20:00,63.4,0.0,30.31,SE,132,4.0,9.0,0,0.00,,---,0.00,VWS V14.00,2013-05-24 22:20:00,
2013-05-24 17:26:00,63.2,0.0,30.31,ESE,119,7.0,10.0,0,0.00,,---,0.00,VWS V14.00,2013-05-24 22:26:00,
2013-05-24 17:31:00,63.1,0.0,30.31,SE,128,0.0,0.0,0,0.00,,---,0.00,VWS V14.00,2013-05-24 22:31:00,
2013-05-24 17:37:00,63.5,0.0,30.30,SE,128,0.0,0.0,0,0.00,,---,0.00,VWS V14.00,2013-05-24 22:37:00,
2013-05-24 17:42:00,63.7,0.0,30.30,SE,128,0.0,4.0,0,0.00,,---,0.00,VWS V14.00,2013-05-24 22:42:00,
2013-05-24 17:47:00,63.5,0.0,30.30,SE,124,0.0,6.0,0,0.00,,---,0.00,VWS V14.00,2013-05-24 22:47:00,
2013-05-24 17:52:00,63.5,0.0,30.30,SE,125,0.0,6.0,0,0.00,,---,0.00,VWS V14.00,2013-05-24 22:52:00,
2013-05-24 17:58:00,63.5,0.0,30.30,ESE,123,0.0,6.0,0,0.00,,---,0.00,VWS V14.00,2013-05-24 22:58:00,
2013-05-24 18:03:00,63.7,0.0,30.30,ENE,65,0.0,4.0,0,0.00,,---,0.00,VWS V14.00,2013-05-24 23:03:00,
2013-05-24 18:08:00,63.5,0.0,30.30,SE,126,0.0,7.0,0,0.00,,---,0.00,VWS V14.00,2013-05-24 23:08:00,
2013-05-24 18:13:00,63.2,0.0,30.29,SE,136,7.0,7.0,0,0.00,,---,0.00,VWS V14.00,2013-05-24 23:13:00,
2013-05-24 18:18:00,63.5,0.0,30.29,SE,136,0.0,7.0,0,0.00,,---,0.00,VWS V14.00,2013-05-24 23:18:00,
2013-05-24 18:23:00,63.7,0.0,30.29,SE,134,0.0,7.0,0,0.00,,---,0.00,VWS V14.00,2013-05-24 23:23:00,
2013-05-24 18:28:00,63.4,0.0,30.29,SE,136,0.0,7.0,0,0.00,,---,0.00,VWS V14.00,2013-05-24 23:28:00,
2013-05-24 18:33:00,63.2,0.0,30.30,SSE,153,0.0,0.0,0,0.00,,---,0.00,VWS V14.00,2013-05-24 23:33:00,
2013-05-24 18:39:00,62.9,0.0,30.30,SSE,147,0.0,0.0,0,0.00,,---,0.00,VWS V14.00,2013-05-24 23:39:00,
2013-05-24 18:44:00,63.1,0.0,30.29,SE,146,0.0,0.0,0,0.00,,---,0.00,VWS V14.00,2013-05-24 23:44:00,
2013-05-24 18:49:00,62.9,0.0,30.30,SE,142,0.0,0.0,0,0.00,,---,0.00,VWS V14.00,2013-05-24 23:49:00,
2013-05-24 18:54:00,63.1,0.0,30.29,SE,142,0.0,0.0,0,0.00,,---,0.00,VWS V14.00,2013-05-24 23:54:00,
2013-05-24 18:59:00,63.1,0.0,30.29,SE,142,0.0,0.0,0,0.00,,---,0.00,VWS V14.00,2013-05-24 23:59:00,
2013-05-24 19:04:00,62.6,0.0,30.28,SE,131,2.0,8.0,0,0.00,,---,0.00,VWS V14.00,2013-05-25 00:04:00,
2013-05-24 19:09:00,62.3,0.0,30.29,SE,133,0.0,8.0,0,0.00,,---,0.00,VWS V14.00,2013-05-25 00:09:00,
2013-05-24 19:14:00,62.1,0.0,30.29,SE,143,6.0,8.0,0,0.00,,---,0.00,VWS V14.00,2013-05-25 00:14:00,
2013-05-24 19:19:00,62.0,0.0,30.29,SE,129,0.0,8.0,0,0.00,,---,0.00,VWS V14.00,2013-05-25 00:19:00,
2013-05-24 19:24:00,62.0,0.0,30.29,SE,130,0.0,8.0,0,0.00,,---,0.00,VWS V14.00,2013-05-25 00:24:00,
2013-05-24 19:29:00,62.0,0.0,30.30,SE,131,2.0,8.0,0,0.00,,---,0.00,VWS V14.00,2013-05-25 00:29:00,
2013-05-24 19:34:00,61.8,0.0,30.30,SE,132,0.0,0.0,0,0.00,,---,0.00,VWS V14.00,2013-05-25 00:34:00,
2013-05-24 19:40:00,61.5,0.0,30.30,SE,132,0.0,0.0,0,0.00,,---,0.00,VWS V14.00,2013-05-25 00:40:00,
2013-05-24 19:45:00,61.2,0.0,30.30,SE,132,0.0,0.0,0,0.00,,---,0.00,VWS V14.00,2013-05-25 00:45:00,
2013-05-24 19:50:00,61.0,0.0,30.30,SE,136,0.0,0.0,0,0.00,,---,0.00,VWS V14.00,2013-05-25 00:50:00,
2013-05-24 19:55:00,60.7,0.0,30.30,SE,136,0.0,0.0,0,0.00,,---,0.00,VWS V14.00,2013-05-25 00:55:00,
2013-05-24 20:00:00,60.5,0.0,30.30,SE,136,0.0,0.0,0,0.00,,---,0.00,VWS V14.00,2013-05-25 01:00:00,
2013-05-24 20:05:00,60.4,0.0,30.30,SE,136,0.0,0.0,0,0.00,,---,0.00,VWS V14.00,2013-05-25 01:05:00,
2013-05-24 20:10:00,60.2,0.0,30.30,SE,136,0.0,0.0,0,0.00,,---,0.00,VWS V14.00,2013-05-25 01:10:00,
2013-05-24 20:15:00,59.9,0.0,30.31,SE,136,0.0,0.0,0,0.00,,---,0.00,VWS V14.00,2013-05-25 01:15:00,
2013-05-24 20:20:00,59.8,0.0,30.31,SE,136,0.0,0.0,0,0.00,,---,0.00,VWS V14.00,2013-05-25 01:20:00,
2013-05-24 20:25:00,59.6,0.0,30.31,SE,136,0.0,0.0,0,0.00,,---,0.00,VWS V14.00,2013-05-25 01:25:00,
2013-05-24 20:31:00,59.5,0.0,30.31,SE,136,0.0,0.0,0,0.00,,---,0.00,VWS V14.00,2013-05-25 01:31:00,
2013-05-24 20:36:00,59.0,0.0,30.31,SE,134,0.0,7.0,0,0.00,,---,0.00,VWS V14.00,2013-05-25 01:36:00,
2013-05-24 20:41:00,58.6,0.0,30.31,SE,133,0.0,11.0,0,0.00,,---,0.00,VWS V14.00,2013-05-25 01:41:00,
2013-05-24 20:46:00,58.3,0.0,30.32,SE,138,0.0,11.0,0,0.00,,---,0.00,VWS V14.00,2013-05-25 01:46:00,
2013-05-24 20:51:00,58.0,0.0,30.32,SE,136,0.0,11.0,0,0.00,,---,0.00,VWS V14.00,2013-05-25 01:51:00,
2013-05-24 20:56:00,57.5,0.0,30.32,SE,127,1.0,11.0,0,0.00,,---,0.00,VWS V14.00,2013-05-25 01:56:00,
2013-05-24 21:01:00,57.3,0.0,30.32,SE,127,1.0,5.0,0,0.00,,---,0.00,VWS V14.00,2013-05-25 02:01:00,
2013-05-24 21:06:00,57.0,0.0,30.33,SE,128,0.0,5.0,0,0.00,,---,0.00,VWS V14.00,2013-05-25 02:06:00,
2013-05-24 21:11:00,56.9,0.0,30.33,SE,130,0.0,5.0,0,0.00,,---,0.00,VWS V14.00,2013-05-25 02:11:00,
2013-05-24 21:17:00,56.7,0.0,30.34,SE,130,0.0,5.0,0,0.00,,---,0.00,VWS V14.00,2013-05-25 02:17:00,
2013-05-24 21:22:00,56.6,0.0,30.34,SE,134,0.0,5.0,0,0.00,,---,0.00,VWS V14.00,2013-05-25 02:22:00,
2013-05-24 21:27:00,56.5,0.0,30.34,SE,140,0.0,6.0,0,0.00,,---,0.00,VWS V14.00,2013-05-25 02:27:00,
2013-05-24 21:32:00,56.0,0.0,30.34,SE,140,0.0,0.0,0,0.00,,---,0.00,VWS V14.00,2013-05-25 02:32:00,
2013-05-24 21:37:00,55.9,0.0,30.34,SE,126,0.0,6.0,0,0.00,,---,0.00,VWS V14.00,2013-05-25 02:37:00,
2013-05-24 21:42:00,55.6,0.0,30.35,SE,128,0.0,6.0,0,0.00,,---,0.00,VWS V14.00,2013-05-25 02:42:00,
2013-05-24 21:47:00,55.3,0.0,30.35,SE,134,0.0,6.0,0,0.00,,---,0.00,VWS V14.00,2013-05-25 02:47:00,
2013-05-24 21:52:00,55.1,0.0,30.35,SE,130,0.0,6.0,0,0.00,,---,0.00,VWS V14.00,2013-05-25 02:52:00,
2013-05-24 21:57:00,55.0,0.0,30.35,ESE,121,0.0,6.0,0,0.00,,---,0.00,VWS V14.00,2013-05-25 02:57:00,
2013-05-24 22:03:00,54.7,0.0,30.35,ESE,123,0.0,4.0,0,0.00,,---,0.00,VWS V14.00,2013-05-25 03:03:00,
2013-05-24 22:08:00,54.2,0.0,30.36,SE,125,0.0,4.0,0,0.00,,---,0.00,VWS V14.00,2013-05-25 03:08:00,
2013-05-24 22:13:00,53.9,0.0,30.35,ESE,121,0.0,7.0,0,0.00,,---,0.00,VWS V14.00,2013-05-25 03:13:00,
2013-05-24 22:18:00,53.5,0.0,30.35,ESE,123,0.0,7.0,0,0.00,,---,0.00,VWS V14.00,2013-05-25 03:18:00,
2013-05-24 22:23:00,53.2,0.0,30.35,SE,132,0.0,7.0,0,0.00,,---,0.00,VWS V14.00,2013-05-25 03:23:00,
2013-05-24 22:28:00,53.1,0.0,30.35,ESE,120,0.0,7.0,0,0.00,,---,0.00,VWS V14.00,2013-05-25 03:28:00,
2013-05-24 22:33:00,52.8,0.0,30.35,SE,134,0.0,0.0,0,0.00,,---,0.00,VWS V14.00,2013-05-25 03:33:00,
2013-05-24 22:38:00,52.5,0.0,30.35,ESE,117,0.0,7.0,0,0.00,,---,0.00,VWS V14.00,2013-05-25 03:38:00,
2013-05-24 22:43:00,52.3,0.0,30.35,ESE,123,0.0,7.0,0,0.00,,---,0.00,VWS V14.00,2013-05-25 03:43:00,
2013-05-24 22:48:00,52.0,0.0,30.35,SE,129,0.0,7.0,0,0.00,,---,0.00,VWS V14.00,2013-05-25 03:48:00,
2013-05-24 22:54:00,51.6,0.0,30.35,ESE,123,0.0,7.0,0,0.00,,---,0.00,VWS V14.00,2013-05-25 03:54:00,
2013-05-24 22:59:00,51.4,0.0,30.35,ESE,120,0.0,7.0,0,0.00,,---,0.00,VWS V14.00,2013-05-25 03:59:00,
2013-05-24 23:01:00,51.3,0.0,30.35,SE,127,0.0,0.0,0,0.00,,---,0.00,VWS V14.00,2013-05-25 04:01:00,
2013-05-24 23:02:00,51.3,0.0,30.35,SE,127,0.0,0.0,0,0.00,,---,0.00,VWS V14.00,2013-05-25 04:02:00,
2013-05-24 23:07:00,51.0,0.0,30.35,East,98,4.0,7.0,0,0.00,,---,0.00,VWS V14.00,2013-05-25 04:07:00,
2013-05-24 23:12:00,50.7,0.0,30.35,SE,144,3.0,7.0,0,0.00,,---,0.00,VWS V14.00,2013-05-25 04:12:00,
2013-05-24 23:18:00,50.5,0.0,30.35,SE,129,0.0,7.0,0,0.00,,---,0.00,VWS V14.00,2013-05-25 04:18:00,
2013-05-24 23:23:00,50.4,0.0,30.35,SE,130,0.0,7.0,0,0.00,,---,0.00,VWS V14.00,2013-05-25 04:23:00,
2013-05-24 23:28:00,50.2,0.0,30.35,SE,129,0.0,7.0,0,0.00,,---,0.00,VWS V14.00,2013-05-25 04:28:00,
2013-05-24 23:33:00,50.1,0.0,30.34,ESE,119,0.0,3.0,0,0.00,,---,0.00,VWS V14.00,2013-05-25 04:33:00,
2013-05-24 23:38:00,49.9,0.0,30.34,SE,129,0.0,4.0,0,0.00,,---,0.00,VWS V14.00,2013-05-25 04:38:00,
2013-05-24 23:43:00,49.8,0.0,30.34,SE,130,0.0,5.0,0,0.00,,---,0.00,VWS V14.00,2013-05-25 04:43:00,
2013-05-24 23:48:00,49.6,0.0,30.34,ESE,115,0.0,7.0,0,0.00,,---,0.00,VWS V14.00,2013-05-25 04:48:00,
2013-05-24 23:54:00,49.4,0.0,30.34,SE,138,0.0,7.0,0,0.00,,---,0.00,VWS V14.00,2013-05-25 04:54:00,
2013-05-24 23:59:00,49.4,0.0,30.34,SE,133,5.0,7.0,0,0.00,,---,0.00,VWS V14.00,2013-05-25 04:59:00,